Regional Weather Roundup
Issued by NWS

Home | Current Version | Previous Version | Graphics & Text | Print | Product List | Glossary On
Versions: 1 2 3 4 5 6 7 8 9 10 11 12 13 14 15 16 17 18 19 20 21 22 23 24 25 26 27
000
ASUS45 KCYS 170810
RWRWY

WYOMING REGIONAL WEATHER ROUNDUP
NATIONAL WEATHER SERVICE CHEYENNE WY
200 AM MDT THU APR 17 2014

NOTE:  "FAIR" INDICATES FEW OR NO CLOUDS BELOW 12,000 FEET
WITH NO SIGNIFICANT WEATHER AND/OR OBSTRUCTIONS TO VISIBILITY.

WYZ001-170900-
YELLOWSTONE NATIONAL PARK

CITY           SKY/WX    TMP DP  RH WIND       PRES   REMARKS
LK YELLOWSTONE   N/A     24  15  68 CALM      30.03S
W YELLOWSTONE  NOT AVBL

$$
WYZ002>013-054>058-071-098>099-170900-
NORTHERN WYOMING

CITY           SKY/WX    TMP DP  RH WIND       PRES   REMARKS
JACKSON        CLEAR     21  19  93 N6        30.03S WCI  14
CODY           PTCLDY    30  27  86 CALM      30.00F
GREYBULL       PTCLDY    36  30  79 CALM      30.02S
WORLAND        CLEAR     33  29  85 S9        30.01F WCI  25
SHERIDAN       MOCLDY    32  30  92 CALM      30.02F
BUFFALO        MOCLDY    28  26  92 S12       30.02F FOG     WCI  18
GILLETTE       CLOUDY    33  30  88 S15       30.06F WCI  23
HULETT         LGT SNOW  30  28  93 CALM      30.08
NEWCASTLE      CLOUDY    32  30  93 S9        30.14  WCI  24

$$
WYZ014>020-022>026-101>103-170900-
CENTRAL WYOMING

CITY           SKY/WX    TMP DP  RH WIND       PRES   REMARKS
BIG PINEY      CLEAR     19  13  77 NW6       30.06S WCI  11
PINEDALE       MOSUNNY   23  21  93 NW5       30.06S WCI  17
DUBOIS         FAIR      25  14  63 NW12      30.02F WCI  14
LANDER         CLEAR     32  25  75 E3        30.02F
RIVERTON       CLEAR     29  26  89 NE3       30.02F
CASPER         CLOUDY    32  31  96 NE3       30.05F FOG
DOUGLAS        CLOUDY    34  32  92 SE12      30.08F WCI  25

$$
WYZ021-027>030-104>119-170900-
SOUTHERN WYOMING

CITY           SKY/WX    TMP DP  RH WIND       PRES   REMARKS
EVANSTON       CLEAR     32  13  45 S6        30.06F WCI  26
FORT BRIDGER   FAIR      34  14  43 SW9       30.08F WCI  26
ROCK SPRINGS   CLEAR     31  10  41 SW5       30.05F WCI  26
DIXON          CLOUDY    30  19  64 CALM      30.07R
RAWLINS        PTCLDY    27  23  85 CALM      30.05R
SARATOGA       FAIR      28  18  64 SE7       30.04S WCI  21
LARAMIE        PTCLDY    29  25  85 S18       30.02F WCI  16
CHEYENNE       PTCLDY    31  29  92 SE13      30.07F WCI  21
TORRINGTON     CLOUDY    33  32  96 E12       30.13S WCI  24
PINE BLUFFS    CLOUDY    32  30  93 SE8       30.10F WCI  25

$$



USA.gov is the U.S. government's official web portal to all federal, state and local government web resources and services.